Location: Kalberh�ni
(46.4610°N, 7.2453°E)
Time: 20:48:40
(UTC+00:00)

Cosmos 1626 - Pass Details

Date: 24 October 2021
Orbit: 487 x 492 km, 82.5° (Epoch: 03 December)

Event Time Altitude Azimuth Distance (km) Brightness Sun altitude
Exits shadow 03:40:52 - 163° (SSE) 1,792 5.0 -24.7°
Reaches altitude 10° 03:41:08 10° 161° (SSE) 1,684 4.9 -24.7°
Maximum altitude 03:44:34 38° 93° (E) 771 3.5 -24.1°
Drops below altitude 10° 03:48:02 10° 24° (NNE) 1,699 5.2 -23.5°
Sets 03:50:15 0° 17° (NNE) 2,587 6.1 -23.1°
